Regional Weather Roundup
Issued by NWS

Home | Current Version | Previous Version | Graphics & Text | Print | Product List | Glossary On
Versions: 1 2 3 4 5 6 7 8 9 10 11 12 13 14 15 16 17 18 19 20 21 22 23 24 25 26 27 28 29 30 31 32 33 34 35 36 37 38 39 40 41 42 43 44 45 46 47 48 49 50
000
ASUS45 KBOU 021107
RWRCO

WEATHER ROUNDUP FOR COLORADO
NATIONAL WEATHER SERVICE DENVER/BOULDER CO
500 AM MDT TUE JUN 02 2015

NOTE: "FAIR" INDICATES FEW OR NO CLOUDS BELOW 12000 FEET WITH NO
SIGNIFICANT WEATHER AND/OR OBSTRUCTIONS TO VISIBILITY.

COZ001>005-013-030-031-021200-
...NORTHWEST COLORADO...

CITY           SKY/WX    TMP DP  RH WIND       PRES   REMARKS
CRAIG          PTCLDY    45  41  86 E6        30.05R
HAYDEN         PTCLDY    48  39  71 E7        30.06S
MEEKER         CLEAR     47  37  68 E8        30.06S
MOUNT WERNER   NOT AVBL
STEAMBOAT SPGS PTCLDY    44  38  79 CALM      30.09R
WALDEN         CLEAR     37  32  81 SE5       30.14S
$$

COZ006>008-011-021200-
...WEST CENTRAL VALLEYS...

CITY           SKY/WX    TMP DP  RH WIND       PRES   REMARKS
GRAND JUNCTION MOCLDY    62  31  31 E13       29.96R
MONTROSE       PTCLDY    59  26  28 E9        30.07R
EAGLE          CLEAR     55  52  88 E3        30.12S
RIFLE          PTCLDY    50  39  66 W3        30.02R
DELTA          PTCLDY    58  32  38 E7        30.03R
NUCLA          PTCLDY    61  23  23 E3        30.12R
$$

COZ017>023-064>068-021200-
...SOUTHWEST COLORADO...

CITY           SKY/WX    TMP DP  RH WIND       PRES   REMARKS
DURANGO        PTCLDY    45  37  73 N5        30.18S
CORTEZ         CLEAR     52  31  44 NE10      30.12R
PAGOSA SPRINGS NOT AVBL
TELLURIDE      CLEAR     49  23  35 E5        30.33R
WOLF CREEK PAS NOT AVBL
$$

COZ009-010-012-014-032>034-037-058>063-021200-
...CENTRAL COLORADO...

CITY           SKY/WX    TMP DP  RH WIND       PRES   REMARKS
ASPEN          CLEAR     49  32  52 SW9       30.16R
BUENA VISTA    CLEAR     40  35  81 W6        30.23R
COPPER MTN     CLEAR     46  18  31 SW12G21   30.43S
BERTHOUD PASS  FAIR      37  32  81 W23       30.45S
COTTONWOOD PAS NOT AVBL
GUNNISON       CLEAR     39  34  81 CALM      30.26S
KREMMLING      CLEAR     41  36  81 CALM      30.16R
LEADVILLE      CLEAR     32  29  88 CALM      30.30R
MONARCH PASS   CLEAR     39  30  70 SW25      30.54S
SALIDA         CLEAR     51  40  64 CALM      30.27R
SUNLIGHT       CLEAR     45  23  42 CALM      30.35S
WILKERSON PASS CLEAR     43  32  65 SW8G17    30.40S
$$

COZ069>075-021200-
...SAN LUIS VALLEY/SANGRE DE CRISTO MOUNTAINS...

CITY           SKY/WX    TMP DP  RH WIND       PRES   REMARKS
ALAMOSA        PTCLDY    49  40  71 SE10      30.21S
LA VETA PASS   CLEAR    N/A N/A N/A MISG      30.34F
SAGUACHE       CLEAR     41  37  87 NW10      30.25R
$$

COZ035-036-038>040-021200-
...NORTHERN COLORADO FRONT RANGE...

CITY           SKY/WX    TMP DP  RH WIND       PRES   REMARKS
DENVER INTL AP PTCLDY    55  49  80 W9        29.98R
DMNS CITY PARK   N/A     55  49  79 W5        29.99S
AURORA         PTCLDY    58  44  58 SW12      30.00R
FRONT RANGE AP CLEAR     55  46  71 MISG      29.98S
ERIE MUNI ARPT NOT AVBL
BOULDER MUN AP CLEAR     54  48  82 CALM      29.98S
CENTENNIAL     PTCLDY    57  43  59 CALM      30.01R
BROOMFIELD     CLEAR     54  50  87 CALM      30.01R
FORT COLLINS   PTCLDY    54  48  82 N7        29.98S
LONGMONT       PTCLDY    54  48  78 CALM      29.99S
$$

COZ041-046-047-076>085-087-088-021200-
...PIKES PEAK/PALMER DIVIDE AND SOUTHERN FOOTHILLS...

CITY           SKY/WX    TMP DP  RH WIND       PRES   REMARKS
COLO. SPRINGS  MOCLDY    52  45  77 N8        30.06S
A. F. ACADEMY  CLEAR     47  42  84 N8        30.07F
ELLICOTT       CLEAR    N/A N/A N/A CALM      30.04S
FALCON         CLEAR     52  43  70 W8        30.10S
FORT CARSON    NOT AVBL
LIMON          CLEAR     52  47  83 SE8       30.00F
MONUMENT HILL  CLEAR     54  41  62 MISG      30.10R
TRINIDAD       CLEAR     58  44  60 W15       30.04S
$$

COZ042>045-048>051-090-091-021200-
...NORTHEAST COLORADO...

CITY           SKY/WX    TMP DP  RH WIND       PRES   REMARKS
GREELEY ARPT   CLEAR     54  52  94 NE7       29.96S
AKRON          PTCLDY    56  55  97 SE15      29.98S
BURLINGTON     PTCLDY    59  54  83 E13       29.99F
WRAY           MOCLDY    57  55  90 SE12      29.96F
STERLING       PTCLDY    59  55  88 S18G26    29.93S
HOLYOKE        NOT AVBL
FORT MORGAN    PTCLDY    59   1  10 SE14      29.96S
$$

COZ086-089-092>099-021200-
...SOUTHEAST COLORADO...

CITY           SKY/WX    TMP DP  RH WIND       PRES   REMARKS
PUEBLO         CLEAR     52  50  93 SW5       29.97F
LA JUNTA       CLEAR     59  53  80 MISG      29.94F
LAMAR          PTCLDY    57  54  89 N7        29.91F
SPRINGFIELD      N/A     55  50  83 SW8       29.95F
$$


USA.gov is the U.S. government's official web portal to all federal, state and local government web resources and services.